Doylestown, PA

1:50 PM EDT on July 22, 2017 (GMT -0400)
Doylestown

Weather History for KDYL - February, 2013

Change the Weather History Date:

Saturday, February 16, 2013

  Actual Average (KTTN) Record (KTTN)
Temperature  
Mean Temperature 32 °F -  
Max Temperature 36 °F 41 °F 72 °F (1954)
Min Temperature 28 °F 24 °F 1 °F (1888)
Degree Days  
Heating Degree Days 33    
Moisture  
Dew Point 25 °F    
Average Humidity 74    
Maximum Humidity 100    
Minimum Humidity 45    
Precipitation  
Precipitation 0.04 in - - ()
Sea Level Pressure  
Sea Level Pressure 29.91 in    
Wind  
Wind Speed 4 mph (North)    
Max Wind Speed 15 mph    
Max Gust Speed 25 mph    
Visibility 9 miles    
Events Rain , Snow    
Averages and records for this station are not official NWS values.
T = Trace of Precipitation, MM = Missing Value Source: NWS Daily Summary

Daily Weather History Graph

Daily Weather History Graph

Search for Another Location

Airport or City:

Trip Planner

Search our weather history database for the weather conditions in past years. The results will help you decide how hot, cold, wet, or windy it might be!

Date:

Astronomy

Feb. 16, 2013 Rise Set
Actual Time 6:52 AM EST 5:37 PM EST
Civil Twilight 6:24 AM EST 6:05 PM EST
Nautical Twilight 5:52 AM EST 6:37 PM EST
Astronomical Twilight 5:21 AM EST 7:08 PM EST
Moon 10:02 AM EST (2/16) No Moon Set
Length of Visible Light 11h 40m
Length of Day
10h 45m
Waxing Crescent, 39% of the Moon is Illuminated
Feb 16
Waxing Crescent
Feb 17
First Quarter
Feb 25
Full
Mar 4
Last Quarter
Mar 11
New

Hourly Weather History & Observations

Time (EST) Temp. Windchill Dew Point Humidity Pressure Visibility Wind Dir Wind Speed Gust Speed Precip Events Conditions
12:54 AM 33.1 °F - 32.0 °F 96% 29.98 in 5.0 mi Calm Calm - 0.02 in Rain Light Rain
1:09 AM 33.8 °F - 33.8 °F 100% 29.96 in 6.0 mi Calm Calm - 0.00 in   Overcast
1:36 AM 33.8 °F - 32.0 °F 93% 29.96 in 5.0 mi Calm Calm - 0.01 in Snow Light Snow
1:54 AM 33.1 °F 30.0 °F 32.0 °F 96% 29.97 in 7.0 mi WNW 3.5 mph - 0.01 in   Overcast
2:03 AM 33.8 °F - 33.8 °F 100% 29.95 in 8.0 mi Calm Calm - N/A   Overcast
2:54 AM 33.1 °F 30.0 °F 32.0 °F 96% 29.95 in 6.0 mi NW 3.5 mph - 0.00 in Snow Light Snow
3:49 AM 33.1 °F 28.7 °F 32.0 °F 96% 29.94 in 10.0 mi NNE 4.6 mph - 0.01 in   Overcast
4:29 AM 33.8 °F 29.6 °F 32.0 °F 93% 29.94 in 10.0 mi NNW 4.6 mph - N/A   Overcast
4:54 AM 33.1 °F 30.0 °F 32.0 °F 96% 29.95 in 10.0 mi North 3.5 mph - N/A   Overcast
6:54 AM 32.0 °F 25.6 °F 27.0 °F 82% 29.96 in 10.0 mi North 6.9 mph - N/A   Overcast
7:54 AM 32.0 °F 26.4 °F 25.0 °F 75% 29.97 in 10.0 mi North 5.8 mph - N/A   Overcast
8:54 AM 32.0 °F 26.4 °F 26.1 °F 79% 29.97 in 10.0 mi North 5.8 mph - N/A   Mostly Cloudy
9:54 AM 33.1 °F 24.9 °F 24.1 °F 70% 29.96 in 10.0 mi NNE 10.4 mph - N/A   Overcast
10:54 AM 34.0 °F 26.6 °F 24.1 °F 67% 29.95 in 10.0 mi NNE 9.2 mph - N/A   Mostly Cloudy
11:54 AM 35.1 °F 29.3 °F 24.1 °F 64% 29.94 in 10.0 mi NNW 6.9 mph - N/A   Partly Cloudy
12:54 PM 35.1 °F 27.9 °F 25.0 °F 67% 29.91 in 10.0 mi North 9.2 mph - N/A   Mostly Cloudy
1:54 PM 36.0 °F 29.6 °F 25.0 °F 64% 29.89 in 10.0 mi North 8.1 mph - N/A   Mostly Cloudy
2:54 PM 35.1 °F 31.0 °F 24.1 °F 64% 29.88 in 10.0 mi North 4.6 mph - N/A   Mostly Cloudy
3:31 PM 33.8 °F 27.7 °F 23.0 °F 65% 29.85 in 10.0 mi North 6.9 mph - N/A   Overcast
3:54 PM 34.0 °F 27.2 °F 23.0 °F 64% 29.87 in 10.0 mi North 8.1 mph - N/A   Overcast
4:54 PM 33.1 °F 27.7 °F 21.9 °F 64% 29.87 in 10.0 mi North 5.8 mph - N/A   Overcast
5:54 PM 32.0 °F 26.4 °F 21.0 °F 64% 29.88 in 10.0 mi NNW 5.8 mph - N/A   Overcast
6:54 PM 30.9 °F 24.3 °F 19.0 °F 61% 29.86 in 10.0 mi NNW 6.9 mph - N/A   Overcast
7:54 PM 30.0 °F 24.1 °F 18.0 °F 61% 29.85 in 10.0 mi NNW 5.8 mph - N/A   Overcast
8:54 PM 30.0 °F 21.1 °F 15.1 °F 54% 29.84 in 10.0 mi North 10.4 mph 17.3 mph N/A   Overcast
9:54 PM 28.9 °F 19.8 °F 15.1 °F 56% 29.83 in 10.0 mi NNW 10.4 mph 19.6 mph N/A   Overcast
10:54 PM 28.9 °F 17.7 °F 10.9 °F 47% 29.80 in 10.0 mi North 15.0 mph 25.3 mph N/A   Unknown
11:54 PM 28.0 °F 18.1 °F 9.0 °F 45% 29.78 in 10.0 mi North 11.5 mph 20.7 mph N/A   Overcast